TimeEET,TemperatureF,Dew PointF,Humidity,Sea Level PressureIn,VisibilityMPH,Wind Direction,Wind SpeedMPH,Gust SpeedMPH,PrecipitationIn,Events,Conditions,WindDirDegrees,DateUTC
12:20 AM,12.2,10.4,92,30.24,-9999.0,SSW,3.5,-,N/A,,Clear,200,2013-01-14 22:20:00
12:50 AM,5.0,3.2,92,30.27,-9999.0,Variable,2.3,-,N/A,,Clear,0,2013-01-14 22:50:00
1:20 AM,5.0,3.2,92,30.27,-9999.0,Variable,2.3,-,N/A,,Clear,0,2013-01-14 23:20:00
1:50 AM,10.4,8.6,92,30.27,-9999.0,SW,6.9,-,N/A,,Clear,230,2013-01-14 23:50:00
2:00 AM,10,10,98,,6,SW,6.9,,,,,230,2013-01-15 00:00:00
2:20 AM,3.2,1.4,92,30.27,-9999.0,West,3.5,-,N/A,,Clear,280,2013-01-15 00:20:00
2:50 AM,3.2,3.2,100,30.27,-9999.0,WSW,6.9,-,N/A,,Clear,240,2013-01-15 00:50:00
3:20 AM,8.6,6.8,92,30.27,-9999.0,WSW,9.2,-,N/A,,Clear,250,2013-01-15 01:20:00
3:50 AM,6.8,5.0,92,30.27,-9999.0,SSW,5.8,-,N/A,,Clear,210,2013-01-15 01:50:00
4:20 AM,6.8,3.2,85,30.27,-9999.0,Variable,4.6,-,N/A,,Clear,0,2013-01-15 02:20:00
4:50 AM,3.2,1.4,92,30.30,-9999.0,SE,4.6,-,N/A,,Clear,140,2013-01-15 02:50:00
5:20 AM,-0.4,-2.2,92,30.30,-9999.0,Variable,1.2,-,N/A,,Clear,0,2013-01-15 03:20:00
5:50 AM,1.4,-0.4,92,30.30,-9999.0,SW,4.6,-,N/A,,Clear,220,2013-01-15 03:50:00
6:20 AM,1.4,-0.4,92,30.33,-9999.0,Variable,2.3,-,N/A,,Clear,0,2013-01-15 04:20:00
6:50 AM,-0.4,-2.2,92,30.33,4.3,WNW,5.8,-,N/A,,Unknown,290,2013-01-15 04:50:00
7:50 AM,1.4,-0.4,92,30.36,3.7,Variable,4.6,-,N/A,,Unknown,0,2013-01-15 05:50:00
8:00 AM,2,1,96,,4,West,4.6,,,,Mist,260,2013-01-15 06:00:00
8:20 AM,-0.4,-2.2,92,30.36,3.7,East,4.6,-,N/A,,Unknown,90,2013-01-15 06:20:00
8:50 AM,1.4,-0.4,92,30.36,4.3,Variable,2.3,-,N/A,,Unknown,0,2013-01-15 06:50:00
9:20 AM,3.2,1.4,92,30.36,4.3,Variable,2.3,-,N/A,,Unknown,0,2013-01-15 07:20:00
9:50 AM,5.0,3.2,92,30.36,4.3,Variable,2.3,-,N/A,,Partly Cloudy,0,2013-01-15 07:50:00
10:20 AM,6.8,3.2,85,30.36,4.3,Variable,2.3,-,N/A,,Partly Cloudy,0,2013-01-15 08:20:00
10:50 AM,6.8,3.2,85,30.36,4.3,SSE,3.5,-,N/A,,Partly Cloudy,160,2013-01-15 08:50:00
11:20 AM,14.0,6.8,73,30.36,4.3,South,3.5,-,N/A,,Partly Cloudy,180,2013-01-15 09:20:00
11:50 AM,12.2,6.8,79,30.36,5.0,Variable,2.3,-,N/A,,Partly Cloudy,0,2013-01-15 09:50:00
12:20 PM,12.2,6.8,79,30.36,5.0,West,4.6,-,N/A,,Partly Cloudy,260,2013-01-15 10:20:00
12:50 PM,15.8,8.6,73,30.36,4.3,Variable,1.2,-,N/A,,Partly Cloudy,0,2013-01-15 10:50:00
1:20 PM,14.0,6.8,73,30.36,4.3,Variable,2.3,-,N/A,,Unknown,0,2013-01-15 11:20:00
1:50 PM,14.0,6.8,73,30.36,4.3,Variable,2.3,-,N/A,,Unknown,0,2013-01-15 11:50:00
2:00 PM,13,9,78,,4,East,2.3,,,,Mist,80,2013-01-15 12:00:00
2:20 PM,12.2,6.8,79,30.36,4.3,NE,3.5,-,N/A,,Unknown,50,2013-01-15 12:20:00
2:50 PM,8.6,5.0,85,30.36,4.3,East,3.5,-,N/A,,Unknown,80,2013-01-15 12:50:00
3:20 PM,8.6,5.0,85,30.39,4.3,Variable,2.3,-,N/A,,Unknown,0,2013-01-15 13:20:00
3:50 PM,8.6,3.2,79,30.39,4.3,Calm,Calm,-,N/A,,Unknown,0,2013-01-15 13:50:00
4:20 PM,3.2,1.4,92,30.39,4.3,Variable,1.2,-,N/A,,Unknown,0,2013-01-15 14:20:00
4:50 PM,-2.2,-4.0,92,30.39,4.3,Variable,1.2,-,N/A,,Unknown,0,2013-01-15 14:50:00
5:20 PM,-9.4,-11.2,92,30.39,4.3,Calm,Calm,-,N/A,,Unknown,0,2013-01-15 15:20:00
5:50 PM,-7.6,-9.4,92,30.39,4.3,WSW,2.3,-,N/A,,Unknown,240,2013-01-15 15:50:00
6:20 PM,-9.4,-13.0,84,30.39,3.7,Variable,2.3,-,N/A,,Unknown,0,2013-01-15 16:20:00
6:50 PM,-9.4,-11.2,92,30.39,2.5,West,4.6,-,N/A,,Mist,260,2013-01-15 16:50:00
7:20 PM,-13.0,-16.6,84,30.42,2.5,Variable,1.2,-,N/A,,Mist,0,2013-01-15 17:20:00
7:50 PM,-13.0,-14.8,92,30.42,2.5,Variable,1.2,-,N/A,,Mist,0,2013-01-15 17:50:00
8:00 PM,-13,-13,97,,2,WSW,1.2,,,,Mist,250,2013-01-15 18:00:00
8:20 PM,-13.0,-16.6,84,30.42,0.7,Calm,Calm,-,N/A,,Mist,0,2013-01-15 18:20:00
8:50 PM,-18.4,-22.0,84,30.42,0.3,Variable,2.3,-,N/A,Fog,Light Freezing Fog,0,2013-01-15 18:50:00
9:20 PM,-16.6,-20.2,84,30.42,0.2,Variable,1.2,-,N/A,Fog,Light Freezing Fog,0,2013-01-15 19:20:00
9:50 PM,-13.0,-16.6,84,30.42,0.2,Calm,Calm,-,N/A,Fog,Light Freezing Fog,0,2013-01-15 19:50:00
10:20 PM,-14.8,-18.4,84,30.42,0.2,Calm,Calm,-,N/A,Fog,Light Freezing Fog,0,2013-01-15 20:20:00
10:50 PM,-16.6,-20.2,84,30.42,0.2,Calm,Calm,-,N/A,Fog,Light Freezing Fog,0,2013-01-15 20:50:00
11:20 PM,-16.6,-20.2,84,30.42,0.2,Variable,1.2,-,N/A,Fog,Light Freezing Fog,0,2013-01-15 21:20:00
11:50 PM,-16.6,-16.6,100,30.42,0.2,Calm,Calm,-,N/A,Fog,Light Freezing Fog,0,2013-01-15 21:50:00